GFSNIL_925_temp_009.txt.gz
Temp
10 9 9 8 7 7 6 6 6 5 4 3 3 3 2 3 2 2 2 2 1 2
9 8 7 7 7 6 6 5 5 4 3 3 3 3 3 2 2 2 2 2 1 1
8 7 7 7 6 5 5 4 3 3 3 4 3 3 2 2 2 2 2 2 1 1
8 7 6 6 5 4 4 4 3 3 3 3 3 2 3 3 3 2 2 1 -0 -0
7 6 5 5 4 3 3 3 2 2 2 2 2 2 3 3 2 2 1 0 -1 -1
6 5 4 4 3 2 2 1 1 2 2 2 2 2 3 2 0 -0 -1 -1 -2 -2
5 4 4 3 2 2 1 1 1 2 2 1 2 2 2 1 -1 -1 -2 -3 -3 -4
5 4 4 3 2 2 2 1 1 1 1 1 1 1 0 -1 -2 -2 -3 -3 -4 -5
4 4 4 3 2 1 1 1 1 1 1 1 -0 -1 -1 -1 -3 -4 -4 -5 -5 -6
4 4 3 3 1 1 1 1 0 0 -1 -1 -1 -1 -2 -2 -4 -5 -5 -6 -6 -7
4 3 3 2 1 1 0 0 0 -1 -1 -1 -3 -3 -3 -4 -5 -6 -6 -7 -7 -7
3 3 2 1 1 1 1 0 -1 -1 -2 -3 -4 -3 -4 -5 -6 -7 -7 -7 -7 -8
2 1 1 1 1 0 -0 -0 -1 -2 -3 -3 -3 -4 -5 -6 -7 -7 -7 -7 -7 -8
1 0 0 0 0 0 -1 -1 -2 -2 -3 -3 -4 -4 -5 -7 -7 -7 -7 -7 -8 -8

GFSNIL_925_temp_012.txt.gz
Temp
10 10 10 9 8 8 8 8 7 7 7 6 5 4 4 4 5 4 4 4 4 4
9 9 8 8 8 7 7 7 7 6 6 5 4 4 5 5 5 4 4 4 4 4
9 8 8 7 7 6 6 6 6 6 5 5 3 4 5 5 5 4 4 4 4 3
8 8 7 7 6 6 5 5 5 5 5 4 4 4 4 4 4 4 4 4 4 3
8 7 7 6 6 5 5 4 4 4 4 4 4 4 4 4 4 4 4 3 3 2
8 7 7 6 5 5 4 4 4 4 4 4 3 3 4 4 4 3 3 2 1 1
8 7 6 5 5 4 4 4 4 4 3 3 3 3 3 3 3 2 2 1 0 -0
7 6 6 5 5 4 3 4 4 3 3 2 2 2 2 2 1 1 1 0 -1 -1
7 6 5 5 4 4 4 4 4 3 3 2 2 -0 -0 -0 0 0 -0 -1 -2 -2
6 5 5 5 4 4 4 4 3 3 2 2 1 -1 -1 -1 -1 -1 -1 -2 -3 -3
6 5 5 5 4 4 4 3 3 3 2 2 -1 -2 -2 -2 -2 -2 -2 -3 -4 -4
5 5 5 4 4 4 3 3 3 2 2 1 -0 -3 -3 -3 -3 -3 -4 -4 -4 -5
4 4 4 4 3 3 3 3 2 1 0 -1 -1 -4 -4 -4 -3 -4 -4 -4 -4 -5
3 3 3 3 3 3 3 2 1 -0 -1 -1 -2 -3 -4 -5 -5 -5 -5 -5 -5 -5

GFSNIL_925_temp_015.txt.gz
Temp
11 10 11 11 10 10 9 9 8 8 8 8 8 6 5 5 5 5 5 6 5 5
10 10 10 10 9 9 9 8 8 8 8 8 6 5 5 4 5 5 6 5 5 5
11 10 10 9 9 8 8 7 7 7 7 7 6 6 4 5 6 5 5 5 5 4
10 10 10 9 8 8 7 7 7 6 6 6 7 6 5 5 5 4 5 5 4 4
10 10 10 9 8 7 7 6 6 6 6 6 6 5 5 5 5 5 5 4 4 3
11 10 9 9 8 7 7 6 6 6 6 6 5 5 4 4 5 5 4 3 3 2
11 10 9 8 8 7 6 6 6 6 5 5 5 5 5 5 4 3 3 2 2 2
10 9 9 8 7 7 6 6 6 6 5 4 4 4 2 3 3 2 2 2 2 1
10 9 8 7 7 6 6 6 6 6 5 4 4 2 1 0 1 2 2 1 1 0
9 8 7 7 7 7 6 6 6 5 5 4 3 1 0 -1 -1 1 1 0 -0 -1
8 7 7 7 7 7 6 6 5 5 4 4 2 1 -0 -1 -1 -0 -0 -1 -1 -2
7 7 7 7 6 6 5 5 5 5 4 4 1 1 -1 -2 -1 -1 -2 -2 -2 -3
6 6 6 6 6 5 5 5 5 4 3 3 1 -0 -2 -3 -2 -2 -2 -2 -2 -3
6 6 5 5 5 5 4 4 4 2 2 1 -0 -1 -2 -3 -4 -3 -3 -3 -3 -3

GFSNIL_925_temp_018.txt.gz
Temp
12 12 11 11 10 10 10 9 9 8 8 8 8 7 6 6 5 5 5 5 5 5
11 11 10 10 10 9 9 8 8 7 7 7 7 7 6 5 5 5 5 5 3 4
11 10 10 10 9 9 8 7 7 7 7 7 7 7 6 5 5 5 5 4 3 4
11 10 10 10 9 8 8 7 7 7 6 6 6 6 6 5 5 5 5 4 4 3
11 10 10 10 9 8 7 7 7 6 6 6 6 6 5 5 5 4 5 4 3 3
11 11 10 10 9 8 7 7 6 6 6 6 5 5 5 5 4 4 3 3 2 2
11 11 10 9 9 8 7 6 6 6 6 6 5 5 5 4 3 3 3 2 2 2
12 11 10 9 9 8 7 6 6 6 6 5 4 4 3 3 2 2 2 2 2 1
11 10 9 8 7 7 7 7 6 6 6 6 4 3 3 2 1 1 1 1 1 0
10 9 8 7 7 7 7 7 6 6 6 5 4 3 2 2 1 0 0 0 -0 -1
8 8 8 7 7 7 7 6 6 6 5 5 3 2 2 1 0 -0 -0 -1 -1 -1
8 7 6 6 7 6 6 6 5 5 5 4 3 2 1 -0 -1 -1 -1 -2 -2 -2
5 5 5 6 5 5 5 5 5 5 4 3 2 1 -0 -1 -1 -2 -2 -2 -2 -2
4 5 4 4 4 4 4 4 4 4 3 2 1 0 -0 -1 -2 -3 -3 -4 -4 -3

GFSNIL_925_temp_021.txt.gz
Temp
14 14 13 12 11 10 10 9 8 8 8 7 7 7 7 7 6 5 5 5 5 4
13 12 11 11 10 9 9 8 8 7 7 7 7 6 6 6 5 5 5 4 4 4
11 11 11 10 9 9 8 8 7 7 7 6 6 6 6 5 5 5 5 5 4 3
11 10 10 10 9 9 8 7 7 7 6 6 6 6 5 5 5 5 4 4 3 3
11 10 10 10 9 9 8 7 7 6 6 6 5 6 5 5 5 4 4 3 3 2
11 10 10 10 9 9 8 7 7 6 6 6 5 5 5 4 4 3 3 2 2 2
11 11 10 10 9 9 8 7 6 6 6 6 5 5 4 4 3 3 2 2 2 2
11 11 10 9 9 8 7 7 7 6 6 6 5 5 4 4 3 3 2 1 1 1
10 10 9 8 8 7 7 7 7 6 6 6 5 5 4 3 3 2 1 1 0 0
9 9 8 7 7 7 6 7 6 6 6 6 5 4 3 2 2 1 0 -0 -0 -1
8 7 6 6 6 5 5 4 6 6 5 5 4 4 3 2 1 0 -0 -1 -1 -2
6 5 5 5 4 4 4 4 5 5 5 5 4 3 2 1 0 -0 -1 -2 -2 -2
4 4 4 3 3 3 4 4 4 4 4 4 3 2 1 0 -0 -1 -2 -2 -3 -3
3 3 3 3 3 3 3 3 3 3 3 3 3 2 1 0 -0 -1 -2 -3 -3 -4

GFSNIL_925_temp_024.txt.gz
Temp
14 14 13 12 11 10 10 9 8 8 7 7 7 6 6 6 6 5 5 5 4 4
13 13 12 11 10 10 9 8 8 7 7 7 6 6 6 6 5 5 5 5 4 4
13 12 11 10 10 9 9 8 8 7 7 6 6 6 6 5 5 5 5 4 4 4
12 11 11 10 10 9 9 9 8 7 7 6 6 6 6 5 5 4 4 4 3 3
12 11 10 10 9 9 9 8 8 7 6 6 6 5 5 5 5 5 3 3 3 2
11 11 10 10 9 9 8 8 7 7 7 6 6 5 5 5 4 4 3 2 2 2
11 11 10 10 9 9 8 8 7 7 7 6 6 6 5 5 4 3 3 2 2 1
11 11 10 9 8 8 7 7 7 7 7 6 6 6 5 4 4 3 2 2 1 1
11 10 9 8 7 7 7 7 6 6 6 6 6 5 5 4 3 3 2 1 1 0
10 8 7 6 6 5 5 5 5 5 6 6 5 5 5 3 3 2 1 1 -0 -1
7 6 5 4 4 4 4 4 4 5 5 5 5 5 4 3 2 1 1 -0 -1 -1
5 4 4 4 3 3 3 4 4 4 4 4 4 4 3 2 1 1 0 -1 -1 -2
4 4 3 3 3 3 3 3 3 3 3 4 4 4 3 2 1 0 -0 -1 -2 -2
4 3 2 3 3 3 3 2 2 2 2 2 2 3 3 2 1 1 -0 -1 -2 -3

GFSNIL_925_temp_030.txt.gz
Temp
14 13 13 13 12 11 11 10 10 9 9 8 7 8 7 6 5 5 5 5 4 4
14 13 13 13 12 11 11 10 9 9 8 8 8 7 7 6 6 5 5 5 4 4
15 14 12 12 11 11 10 10 9 8 8 8 8 7 6 6 5 5 5 5 4 4
14 12 11 11 11 11 10 9 9 8 8 8 7 7 6 5 5 5 5 4 4 4
11 11 12 12 11 11 10 9 9 8 8 7 7 6 6 5 5 5 5 5 4 4
12 12 12 12 11 10 10 9 8 8 7 7 7 6 6 5 5 5 5 4 4 4
12 12 12 11 10 10 9 8 8 7 7 7 6 5 6 5 5 5 5 4 4 3
11 11 10 9 9 9 8 8 7 7 6 5 5 5 5 5 5 5 5 3 3 3
9 9 8 9 9 8 7 6 6 5 5 5 4 5 5 5 5 5 4 3 3 2
8 8 8 7 7 6 5 5 4 3 4 4 3 4 4 4 4 4 4 3 2 2
7 6 5 5 4 4 3 3 3 3 2 2 3 3 4 4 4 4 3 2 2 1
4 4 4 3 3 3 3 3 2 2 1 2 3 3 3 3 3 3 2 2 2 1
3 3 2 2 3 3 2 2 1 1 2 2 2 2 2 2 2 2 2 2 1 0
4 4 4 3 2 2 2 1 2 2 2 2 1 1 1 1 1 1 1 1 1 1

GFSNIL_925_temp_033.txt.gz
Temp
12 13 14 14 13 12 11 9 9 9 9 9 8 7 6 7 6 6 5 5 5 5
12 13 13 13 11 11 10 9 10 9 9 8 8 7 7 7 7 6 5 5 4 4
13 13 12 11 10 9 9 10 9 9 8 8 7 7 8 7 7 6 5 5 4 4
13 12 12 11 9 9 9 9 9 9 8 8 8 8 7 6 6 6 5 5 4 4
12 12 10 10 9 9 9 9 9 9 8 7 7 7 7 6 6 5 4 4 3 3
11 9 8 8 9 8 9 9 9 8 8 8 7 6 6 4 4 5 5 4 4 4
8 8 8 8 7 8 8 9 9 8 8 7 6 5 4 3 3 4 5 5 4 4
10 8 7 7 8 8 9 8 8 8 6 5 4 4 4 4 3 3 4 4 4 4
8 7 8 8 8 8 7 7 6 5 4 3 5 3 2 3 3 4 3 3 3 4
8 8 7 7 7 6 5 4 3 3 3 4 2 2 2 3 3 2 3 3 3 2
6 5 5 5 4 3 3 3 3 2 3 2 2 2 2 2 2 2 2 2 2 2
4 3 3 3 3 2 2 2 3 3 2 1 1 2 2 2 1 1 2 2 2 1
3 3 3 2 3 3 2 2 2 2 1 1 1 2 2 1 1 0 0 1 2 2
3 3 3 3 3 2 2 1 1 1 1 1 1 1 1 1 1 0 0 -0 -0 0

GFSNIL_925_temp_036.txt.gz
Temp
14 14 13 13 11 11 12 11 11 10 10 10 9 8 7 7 7 7 8 8 8 8
13 13 14 14 11 12 10 10 10 9 9 9 8 7 7 7 7 8 7 7 7 7
13 13 13 13 11 10 9 10 10 9 8 8 8 7 7 7 8 7 7 7 7 7
14 14 13 13 11 10 10 10 8 8 8 8 7 6 6 8 8 7 7 7 7 6
15 14 13 11 10 9 9 8 9 9 7 7 6 7 7 7 6 6 5 7 7 6
12 12 11 10 9 8 8 8 9 9 7 6 6 6 7 5 4 4 4 6 6 6
12 10 10 9 9 8 8 9 8 7 6 6 7 6 4 5 3 3 4 5 5 5
12 11 11 10 9 9 8 7 7 6 6 5 4 4 5 4 2 2 3 4 5 5
10 10 9 8 7 6 6 6 6 6 5 4 3 4 4 2 1 2 4 4 5 5
10 9 7 6 5 5 5 5 4 3 3 3 3 4 3 2 1 1 3 4 5 5
8 7 6 5 4 3 4 4 3 3 3 4 3 2 2 1 1 2 3 4 4 4
7 6 5 4 4 3 4 4 4 3 3 2 2 2 2 1 2 2 3 3 3 4
6 6 6 5 5 4 4 3 2 2 2 2 2 2 2 1 1 2 2 2 3 3
5 4 4 3 3 3 3 3 3 3 3 3 2 2 1 0 -0 1 1 2 2 2

GFSNIL_925_temp_039.txt.gz
Temp
18 16 15 15 14 14 14 14 12 11 11 11 12 12 10 9 9 9 9 10 10 10
19 15 15 14 14 14 13 11 11 11 10 11 11 11 9 8 9 9 9 9 9 9
15 15 15 15 14 13 11 9 9 10 10 10 10 9 8 8 8 8 8 9 9 8
16 15 14 14 14 12 10 9 10 10 10 9 8 8 8 8 8 9 9 8 7 7
17 16 14 14 13 12 11 10 10 10 9 8 9 9 7 7 8 7 5 5 4 5
16 15 14 13 12 11 10 10 10 9 8 9 8 7 7 7 5 5 4 4 4 6
14 13 12 11 10 10 9 9 8 9 9 8 7 7 7 5 4 3 4 4 5 5
13 12 11 10 10 9 9 8 8 8 7 7 6 5 4 4 3 4 3 2 3 4
14 13 12 12 11 10 8 7 7 6 5 5 4 4 4 4 5 3 2 2 3 4
12 11 10 9 8 6 6 5 5 5 4 5 5 4 3 3 2 3 2 1 2 4
11 10 9 8 7 6 5 4 4 4 4 4 4 4 3 3 3 2 3 4 4 5
10 9 8 7 6 5 5 5 5 5 4 4 3 3 3 2 2 3 3 4 4 4
9 9 8 6 6 5 5 4 4 3 3 4 3 4 3 2 2 2 2 2 3 3
8 7 6 6 5 5 5 5 5 4 4 4 4 4 2 0 -0 -1 -2 -1 -1 -0

GFSNIL_925_temp_042.txt.gz
Temp
20 19 18 17 17 16 15 15 14 13 13 13 12 12 12 12 11 10 10 10 10 10
19 17 17 16 16 15 15 14 14 13 13 12 12 11 12 11 11 9 9 9 9 9
17 16 16 15 15 15 14 14 14 13 12 11 10 11 11 10 9 9 9 9 9 9
16 15 15 15 15 14 14 14 13 12 11 10 10 10 10 9 9 8 8 8 7 6
16 15 15 15 15 14 14 13 12 10 9 9 10 9 9 8 8 8 7 6 5 5
16 16 16 15 14 13 13 12 11 10 10 10 9 8 8 7 6 6 6 6 5 4
16 16 15 13 12 12 11 11 10 10 10 9 8 8 7 6 5 5 5 5 4 4
14 13 12 12 11 11 10 10 9 9 8 8 8 7 5 5 5 6 5 4 3 3
13 12 11 11 10 9 8 8 8 8 8 7 7 6 6 5 5 4 3 3 2 2
13 12 11 10 9 8 7 7 7 7 6 6 6 5 5 4 4 3 3 3 3 3
11 10 9 9 7 7 6 5 5 5 5 5 4 4 4 3 3 3 3 3 3 4
10 9 8 7 6 5 5 4 4 5 5 5 3 3 3 2 2 2 2 2 2 2
9 8 7 7 6 6 6 5 5 4 5 4 4 4 3 2 1 1 0 0 0 0
8 7 6 6 6 5 5 5 4 4 5 4 3 2 1 1 0 -1 -2 -3 -3 -3

GFSNIL_925_temp_045.txt.gz
Temp
19 18 18 19 19 18 17 18 17 15 15 15 14 14 13 13 12 10 12 10 10 10
19 17 18 18 18 18 17 17 16 15 15 14 13 13 13 12 12 11 11 10 10 10
17 17 18 18 17 17 17 16 15 14 14 13 13 12 12 11 10 10 10 9 9 8
17 18 17 17 16 16 16 15 14 14 13 12 12 11 11 10 10 9 8 8 7 7
16 16 15 16 16 15 15 14 14 13 13 12 11 10 10 10 9 8 7 6 6 6
16 16 16 15 15 15 14 14 13 12 11 10 10 10 9 9 8 7 6 6 5 7
15 15 15 15 15 14 14 13 12 11 11 10 10 9 8 8 6 6 6 5 5 5
15 15 15 14 13 13 12 11 11 10 10 9 9 8 8 6 6 5 5 5 5 4
14 13 12 12 11 11 10 10 9 9 9 8 8 7 6 7 5 5 4 4 3 3
12 11 10 10 10 9 9 8 8 8 7 7 6 6 6 5 4 4 4 3 3 3
10 10 9 9 8 8 7 7 7 6 6 6 5 5 5 4 4 4 3 3 2 1
10 9 8 7 6 6 6 5 5 5 5 5 4 4 4 3 3 2 1 1 1 1
9 8 7 6 6 5 5 5 5 4 4 4 4 3 2 2 1 1 1 0 0 -1
8 7 6 6 5 5 5 5 5 4 4 4 3 1 2 1 1 -0 -1 -2 -3 -4

GFSNIL_925_temp_051.txt.gz
Temp
12 12 12 13 13 14 15 16 16 17 17 16 16 16 15 14 13 14 14 14 13 13
12 12 13 13 14 14 15 16 16 17 16 16 15 16 15 14 13 14 13 13 13 12
13 13 13 13 14 15 15 15 15 16 16 17 16 15 14 14 14 13 13 13 11 10
13 13 13 13 14 14 15 15 15 14 15 16 14 14 14 14 13 13 12 11 10 10
14 14 14 14 14 15 15 15 13 14 13 13 13 13 13 13 12 11 11 11 9 8
14 14 14 15 15 15 14 16 15 13 13 12 13 12 13 12 12 11 10 10 8 8
14 14 14 15 13 15 15 15 13 13 13 12 13 12 12 11 10 10 9 8 8 7
15 15 14 14 14 14 14 14 14 14 14 13 12 11 11 10 9 8 7 7 6 6
15 15 14 14 13 13 13 13 12 12 12 11 10 10 11 10 8 7 7 6 5 4
15 14 13 13 13 12 11 11 11 10 10 10 10 9 9 8 8 7 6 5 4 3
14 13 13 12 12 11 11 11 10 10 9 9 8 8 7 7 6 5 4 4 3 2
12 12 11 10 10 10 9 9 8 8 7 7 6 6 5 5 4 3 2 2 2 1
10 10 9 9 8 8 8 7 7 6 5 5 4 4 4 4 3 2 1 -0 -1 1
9 8 8 8 7 7 6 5 4 4 3 3 3 2 3 3 3 2 0 -0 -1 -2

GFSNIL_925_temp_054.txt.gz
Temp
12 13 13 14 14 14 14 15 16 16 16 16 16 16 15 15 14 14 13 12 12 12
12 12 12 12 13 13 14 15 14 14 15 16 16 16 15 14 13 13 13 12 12 12
11 11 11 11 12 12 13 14 14 15 15 15 16 15 15 13 13 13 13 13 12 12
11 11 11 12 12 12 13 13 14 15 15 15 14 13 13 13 12 12 12 12 12 12
11 12 12 12 12 12 13 14 14 14 14 14 14 13 12 12 12 11 11 12 11 11
12 12 12 12 13 13 13 13 13 14 13 14 14 12 12 12 11 11 12 12 11 11
12 13 13 13 13 13 13 13 13 13 13 13 15 13 12 12 11 11 11 10 10 9
13 13 12 13 13 13 13 13 13 13 12 12 12 12 12 12 11 10 10 9 8 7
13 13 13 13 13 13 12 12 12 12 12 11 11 12 13 12 10 9 8 6 6 6
14 13 13 13 13 12 13 12 12 12 11 11 11 11 10 9 9 8 6 6 5 4
14 13 13 12 13 12 12 12 11 11 11 10 9 9 8 8 7 6 5 5 4 4
14 13 12 12 12 11 11 10 10 9 8 8 7 7 7 6 5 4 3 3 3 2
13 13 12 11 10 9 9 7 6 6 6 6 5 4 5 5 4 3 2 1 -0 -1
11 11 10 8 7 6 6 5 4 3 3 3 3 3 4 4 4 2 0 -1 -2 -3

GFSNIL_925_temp_057.txt.gz
Temp
12 13 13 13 13 13 13 14 14 15 15 15 15 15 15 15 15 15 14 13 12 13
11 12 12 13 12 13 13 13 14 15 15 16 15 15 14 14 16 15 14 14 13 13
11 11 12 12 12 12 13 13 13 14 14 15 15 16 15 14 15 14 13 13 12 12
11 11 11 11 12 12 12 12 12 12 13 13 14 14 13 14 14 13 12 11 11 11
11 11 11 11 12 12 12 12 12 12 13 14 13 13 13 14 14 12 12 11 10 10
11 11 11 12 12 11 12 12 12 12 12 12 13 13 13 14 12 13 12 11 10 10
11 11 11 11 11 11 12 11 12 12 12 13 13 12 13 14 13 11 11 11 11 11
13 12 12 12 12 12 12 12 12 12 12 12 12 12 11 11 12 10 11 10 11 9
13 13 12 12 12 12 12 12 12 12 12 12 11 11 12 11 11 10 10 9 8 8
13 13 13 13 13 13 13 13 12 12 12 12 12 12 11 11 10 9 9 8 7 6
13 13 13 13 13 13 12 12 12 12 12 12 11 11 11 11 8 8 7 6 6 5
13 13 13 13 13 12 12 12 12 12 12 11 10 10 9 8 7 5 4 4 4 4
13 13 12 12 12 12 11 11 10 9 8 8 8 7 6 6 5 3 2 1 0 1
12 12 12 11 10 9 8 7 5 4 3 4 4 4 4 5 4 2 -1 -1 -2 -3

GFSNIL_925_temp_063.txt.gz
Temp
13 14 13 13 13 13 14 14 14 14 14 14 15 15 14 15 15 16 16 15 15 15
13 13 14 14 13 13 14 15 15 15 14 15 15 15 15 15 16 16 16 16 15 15
13 14 14 14 14 13 14 15 15 15 14 14 15 15 16 16 16 16 16 15 15 15
14 15 14 15 15 14 15 15 15 14 14 14 14 15 16 16 16 16 16 16 16 15
15 15 15 15 16 16 16 15 16 16 15 15 15 15 15 15 16 16 16 16 16 16
17 17 17 17 16 16 16 16 16 17 17 17 17 16 16 16 16 16 16 17 17 17
18 17 17 17 17 17 17 17 17 16 17 17 17 16 16 16 16 16 16 16 16 16
19 18 17 17 17 17 16 17 16 16 16 16 16 16 16 16 16 16 16 16 16 15
19 18 18 17 17 17 16 16 16 16 16 16 16 16 16 16 16 16 16 15 14 13
20 19 18 18 17 17 17 16 16 16 16 16 16 16 15 15 14 15 15 15 14 13
20 20 19 18 18 17 17 17 16 16 16 16 16 16 15 15 14 14 14 14 14 13
21 20 20 19 18 18 17 17 17 16 16 16 16 16 15 15 14 12 11 11 11 10
22 21 20 19 19 18 17 17 17 16 11 12 12 12 13 12 11 9 6 5 4 4
22 21 20 19 19 17 14 10 8 6 4 5 5 5 6 8 7 4 1 -1 -1 -2

GFSNIL_925_temp_066.txt.gz
Temp
13 13 14 13 13 13 14 14 14 14 14 14 14 15 16 16 15 14 14 15 16 16
13 13 14 13 13 13 14 13 14 14 14 14 14 15 15 15 16 16 14 14 16 16
13 13 13 13 13 13 13 13 14 14 13 14 14 14 14 14 14 14 14 14 15 15
13 13 13 13 14 13 13 13 14 14 14 14 14 14 14 14 14 14 14 15 15 15
13 13 13 13 14 14 14 13 14 14 15 15 14 14 14 14 15 15 15 15 15 15
14 14 14 14 14 14 14 14 14 15 15 15 14 14 14 14 15 15 16 16 16 15
16 15 14 15 15 15 15 15 15 15 15 15 15 15 15 15 15 15 15 15 16 16
18 17 16 15 15 15 16 16 16 16 15 16 16 16 16 16 16 15 15 16 16 16
20 19 18 17 17 17 17 16 17 16 16 16 16 17 17 17 16 16 16 16 16 16
21 20 19 18 17 17 17 17 17 17 16 16 16 16 16 17 16 16 16 16 15 15
21 21 20 19 18 18 17 17 16 16 16 16 16 16 16 16 16 16 15 15 15 15
22 21 21 20 19 18 17 17 16 16 16 16 16 15 16 16 15 15 14 13 13 12
11 21 21 20 19 19 18 17 17 14 11 11 10 9 12 14 12 11 9 6 5 4
5 8 13 17 17 18 15 12 8 6 5 6 5 6 6 8 8 6 2 0 -1 -1

GFSNIL_925_temp_069.txt.gz
Temp
13 12 12 12 12 13 13 13 14 15 16 16 16 16 16 16 16 16 16 16 14 14
13 13 13 13 13 13 13 13 14 14 15 15 15 15 15 15 16 15 15 15 15 14
13 13 13 13 13 13 13 13 13 14 14 14 14 14 15 15 15 15 15 15 14 14
12 12 13 13 13 13 13 13 14 14 13 13 14 14 14 14 14 13 14 14 13 14
13 13 13 13 13 13 13 13 13 13 13 14 13 13 13 14 14 13 13 13 13 13
13 13 13 13 13 13 13 13 13 13 13 13 13 13 13 14 14 14 14 14 13 14
13 13 13 13 13 13 13 13 13 13 13 13 13 13 13 13 13 13 13 13 13 13
13 13 13 13 13 13 13 13 13 12 12 13 13 14 14 13 13 13 13 13 13 14
15 14 13 13 13 13 13 13 13 13 13 13 13 14 14 14 13 13 13 13 13 13
17 16 15 14 14 14 14 14 14 14 14 14 14 14 14 14 14 14 14 14 14 13
9 10 14 16 15 15 15 14 14 14 15 15 15 15 15 15 15 14 14 14 14 14
5 6 7 11 16 16 16 16 15 15 15 15 15 15 15 15 15 14 14 13 12 12
2 3 4 5 7 14 16 16 15 14 12 12 12 9 11 12 13 11 9 7 6 6
-1 1 1 2 3 5 8 10 9 7 5 5 5 5 8 9 11 9 4 1 0 0

GFSNIL_925_temp_072.txt.gz
Temp
12 12 12 12 12 12 12 13 13 14 14 13 14 15 16 15 15 17 17 17 17 17
12 12 11 12 12 12 12 13 13 14 15 15 15 16 16 16 16 16 16 16 16 16
12 12 12 12 12 12 13 13 13 14 14 14 15 15 16 16 16 16 16 16 16 16
12 12 12 12 12 12 13 13 13 13 14 14 14 15 15 15 15 15 15 15 14 15
13 13 13 12 12 12 12 13 13 13 13 13 14 13 13 13 14 13 13 13 13 14
13 13 12 12 13 13 12 12 12 13 13 13 13 13 13 13 13 13 13 13 13 13
13 13 13 13 13 13 13 13 12 13 12 13 13 13 13 12 12 13 13 13 13 13
12 12 12 12 13 13 13 13 13 13 12 12 12 12 13 13 13 12 12 12 12 12
13 13 12 12 12 12 12 13 13 13 13 12 12 13 13 13 12 12 12 12 12 12
8 10 11 12 12 12 12 12 12 13 13 13 12 12 12 12 13 13 13 13 13 13
4 5 6 8 10 12 12 12 12 13 13 13 13 13 13 13 13 12 13 13 13 12
2 3 4 4 5 6 9 12 12 13 13 13 13 12 13 13 13 12 12 13 13 13
-0 1 1 1 2 3 4 8 11 6 4 3 5 5 8 11 10 11 11 9 7 7
-2 -1 -2 -1 -0 1 1 0 -1 -1 -2 -2 -2 -2 2 6 8 7 1 -1 -1 -1

GFSNIL_925_temp_075.txt.gz
Temp
13 12 12 12 12 12 12 12 13 13 13 13 13 14 14 14 14 14 13 13 13 14
12 12 12 12 12 12 12 12 12 13 13 13 13 13 13 13 13 13 13 14 14 14
12 12 12 12 12 12 12 12 12 13 13 13 13 13 13 12 13 13 13 13 13 13
12 12 12 12 12 12 12 12 12 13 13 13 13 13 13 13 12 12 12 13 13 15
12 12 12 12 12 12 12 12 12 13 13 13 13 13 13 13 13 13 13 14 14 15
11 12 12 12 13 13 13 13 13 12 12 13 13 13 13 13 13 13 13 13 13 14
12 12 13 13 13 13 13 13 12 12 12 12 12 12 12 12 13 13 13 13 13 13
12 12 12 12 12 12 12 12 13 13 13 12 12 12 12 12 12 12 12 12 12 12
10 11 12 12 12 12 12 12 12 12 12 12 12 12 12 13 12 12 12 12 12 12
5 6 7 8 10 11 11 12 12 12 12 12 12 12 13 13 12 12 12 12 12 12
3 4 4 5 5 6 7 9 11 12 12 12 12 11 12 12 12 12 12 12 12 12
1 1 1 2 2 2 4 4 5 6 6 7 7 5 8 10 11 10 11 11 11 10
-1 -1 -1 -0 -0 -0 -0 -1 -0 -1 -1 -1 -1 1 3 5 7 6 9 6 4 2
-3 -2 -2 -2 -2 -2 -2 -2 -2 -2 -2 -2 -3 -3 -0 3 4 1 -1 -2 -3 -3